Time,TemperatureF,DewpointF,PressureIn,WindDirection,WindDirectionDegrees,WindSpeedMPH,WindSpeedGustMPH,Humidity,HourlyPrecipIn,Conditions,Clouds,dailyrainin,SoftwareType,DateUTC
2014-02-27 00:05:00,29.6,17.8,29.92,North,350,0.0,0.0,61,0.00,,,0.00,Wunderground v.1.15,2014-02-27 05:05:00,
2014-02-27 00:09:00,29.4,18.0,29.92,North,350,0.0,0.0,62,0.00,,,0.00,Wunderground v.1.15,2014-02-27 05:09:00,
2014-02-27 00:15:00,29.3,17.5,29.91,North,350,0.0,0.0,61,0.00,,,0.00,Wunderground v.1.15,2014-02-27 05:15:00,
2014-02-27 00:20:00,29.2,17.4,29.91,North,350,0.0,0.0,61,0.00,,,0.00,Wunderground v.1.15,2014-02-27 05:20:00,
2014-02-27 00:25:00,29.2,16.6,29.91,North,350,0.0,0.0,59,0.00,,,0.00,Wunderground v.1.15,2014-02-27 05:25:00,
2014-02-27 00:30:00,29.2,17.0,29.91,North,350,0.0,0.0,60,0.00,,,0.00,Wunderground v.1.15,2014-02-27 05:30:00,
2014-02-27 00:40:00,29.1,16.5,29.91,North,350,0.0,0.0,59,0.00,,,0.00,Wunderground v.1.15,2014-02-27 05:40:00,
2014-02-27 00:50:00,28.9,15.6,29.91,North,350,0.0,0.0,57,0.00,,,0.00,Wunderground v.1.15,2014-02-27 05:50:00,
2014-02-27 01:00:00,28.8,15.5,29.91,North,350,0.0,0.0,57,0.00,,,0.00,Wunderground v.1.15,2014-02-27 06:00:00,
2014-02-27 01:05:00,28.7,15.4,29.91,North,350,0.0,0.0,57,0.00,,,0.00,Wunderground v.1.15,2014-02-27 06:05:00,
2014-02-27 01:10:00,28.7,15.4,29.91,North,350,0.0,0.0,57,0.00,,,0.00,Wunderground v.1.15,2014-02-27 06:10:00,
2014-02-27 01:20:00,28.5,15.2,29.91,North,350,0.0,0.0,57,0.00,,,0.00,Wunderground v.1.15,2014-02-27 06:20:00,
2014-02-27 01:25:00,28.5,14.8,29.91,North,350,0.0,0.0,56,0.00,,,0.00,Wunderground v.1.15,2014-02-27 06:25:00,
2014-02-27 01:30:00,28.4,15.5,29.91,North,350,0.0,0.0,58,0.00,,,0.00,Wunderground v.1.15,2014-02-27 06:30:00,
2014-02-27 01:35:00,28.3,15.0,29.91,North,350,0.0,0.0,57,0.00,,,0.00,Wunderground v.1.15,2014-02-27 06:35:00,
2014-02-27 01:40:00,28.3,14.6,29.91,North,350,0.0,0.0,56,0.00,,,0.00,Wunderground v.1.15,2014-02-27 06:40:00,
2014-02-27 01:49:00,28.2,14.9,29.92,North,350,0.0,0.0,57,0.00,,,0.00,Wunderground v.1.15,2014-02-27 06:49:00,
2014-02-27 01:55:00,28.1,14.8,29.92,North,349,0.0,0.0,57,0.00,,,0.00,Wunderground v.1.15,2014-02-27 06:55:00,
2014-02-27 02:00:00,28.0,15.1,29.91,NNW,348,0.0,0.0,58,0.00,,,0.00,Wunderground v.1.15,2014-02-27 07:00:00,
2014-02-27 02:10:00,27.9,14.6,29.91,NNW,348,0.0,0.0,57,0.00,,,0.00,Wunderground v.1.15,2014-02-27 07:10:00,
2014-02-27 02:20:00,27.8,14.5,29.91,NNW,348,0.0,0.0,57,0.00,,,0.00,Wunderground v.1.15,2014-02-27 07:20:00,
2014-02-27 02:25:00,27.7,14.4,29.91,NNW,348,0.0,0.0,57,0.00,,,0.00,Wunderground v.1.15,2014-02-27 07:25:00,
2014-02-27 02:30:00,27.6,14.3,29.91,NNW,348,0.0,0.0,57,0.00,,,0.00,Wunderground v.1.15,2014-02-27 07:30:00,
2014-02-27 02:40:00,27.4,14.1,29.91,NNW,348,0.0,0.0,57,0.00,,,0.00,Wunderground v.1.15,2014-02-27 07:40:00,
2014-02-27 02:49:00,27.3,14.5,29.91,NNW,348,0.0,0.0,58,0.00,,,0.00,Wunderground v.1.15,2014-02-27 07:49:00,
2014-02-27 02:55:00,27.2,14.4,29.91,NNW,348,0.0,0.0,58,0.00,,,0.00,Wunderground v.1.15,2014-02-27 07:55:00,
2014-02-27 03:00:00,27.2,14.0,29.91,NNW,348,0.0,0.0,57,0.00,,,0.00,Wunderground v.1.15,2014-02-27 08:00:00,
2014-02-27 03:10:00,27.1,14.3,29.91,NNW,348,0.0,0.0,58,0.00,,,0.00,Wunderground v.1.15,2014-02-27 08:10:00,
2014-02-27 03:20:00,27.0,13.8,29.91,North,350,0.0,0.0,57,0.00,,,0.00,Wunderground v.1.15,2014-02-27 08:20:00,
2014-02-27 03:30:00,26.8,14.0,29.91,NNW,347,0.0,0.0,58,0.00,,,0.00,Wunderground v.1.15,2014-02-27 08:30:00,
2014-02-27 03:40:00,26.6,14.2,29.91,NNW,346,0.0,0.0,59,0.00,,,0.00,Wunderground v.1.15,2014-02-27 08:40:00,
2014-02-27 03:45:00,26.6,14.2,29.91,NNW,346,0.0,0.0,59,0.00,,,0.00,Wunderground v.1.15,2014-02-27 08:45:00,
2014-02-27 03:50:00,26.6,14.2,29.91,NNW,346,0.0,0.0,59,0.00,,,0.00,Wunderground v.1.15,2014-02-27 08:50:00,
2014-02-27 04:00:00,26.5,14.1,29.91,NNW,346,0.0,1.0,59,0.00,,,0.00,Wunderground v.1.15,2014-02-27 09:00:00,
2014-02-27 04:10:00,26.3,13.9,29.91,NNW,346,0.0,0.0,59,0.00,,,0.00,Wunderground v.1.15,2014-02-27 09:10:00,
2014-02-27 04:20:00,26.1,14.1,29.91,NNW,346,0.0,0.0,60,0.00,,,0.00,Wunderground v.1.15,2014-02-27 09:20:00,
2014-02-27 04:30:00,26.0,14.4,29.91,NNW,348,0.0,0.0,61,0.00,,,0.00,Wunderground v.1.15,2014-02-27 09:30:00,
2014-02-27 04:35:00,25.9,13.5,29.91,NNW,348,0.0,0.0,59,0.00,,,0.00,Wunderground v.1.15,2014-02-27 09:35:00,
2014-02-27 04:40:00,25.8,13.8,29.91,North,350,0.0,0.0,60,0.00,,,0.00,Wunderground v.1.15,2014-02-27 09:40:00,
2014-02-27 04:50:00,25.7,13.3,29.91,North,350,0.0,0.0,59,0.00,,,0.00,Wunderground v.1.15,2014-02-27 09:50:00,
2014-02-27 05:00:00,25.6,13.2,29.91,NNW,348,0.0,0.0,59,0.00,,,0.00,Wunderground v.1.15,2014-02-27 10:00:00,
2014-02-27 05:10:00,25.4,13.1,29.91,NNW,346,0.0,0.0,59,0.00,,,0.00,Wunderground v.1.15,2014-02-27 10:10:00,
2014-02-27 05:20:00,25.3,13.0,29.93,North,350,0.0,1.0,59,0.00,,,0.00,Wunderground v.1.15,2014-02-27 10:20:00,
2014-02-27 05:30:00,25.1,12.8,29.93,NNW,344,0.0,0.0,59,0.00,,,0.00,Wunderground v.1.15,2014-02-27 10:30:00,
2014-02-27 05:40:00,25.0,12.7,29.93,NNW,344,0.0,0.0,59,0.00,,,0.00,Wunderground v.1.15,2014-02-27 10:40:00,
2014-02-27 05:50:00,24.8,12.5,29.94,NNW,344,0.0,0.0,59,0.00,,,0.00,Wunderground v.1.15,2014-02-27 10:50:00,
2014-02-27 06:00:00,24.7,12.0,29.95,NNW,344,0.0,0.0,58,0.00,,,0.00,Wunderground v.1.15,2014-02-27 11:00:00,
2014-02-27 06:10:00,24.4,11.7,29.95,NNW,344,0.0,0.0,58,0.00,,,0.00,Wunderground v.1.15,2014-02-27 11:10:00,
2014-02-27 06:20:00,24.2,11.1,29.96,NNW,344,0.0,0.0,57,0.00,,,0.00,Wunderground v.1.15,2014-02-27 11:20:00,
2014-02-27 06:30:00,24.1,10.6,29.96,NNW,344,0.0,0.0,56,0.00,,,0.00,Wunderground v.1.15,2014-02-27 11:30:00,
2014-02-27 06:40:00,24.0,11.0,29.96,NNW,345,0.0,0.0,57,0.00,,,0.00,Wunderground v.1.15,2014-02-27 11:40:00,
2014-02-27 06:50:00,23.9,10.9,29.97,NNW,344,0.0,0.0,57,0.00,,,0.00,Wunderground v.1.15,2014-02-27 11:50:00,
2014-02-27 07:00:00,23.7,10.3,29.97,NNW,346,0.0,0.0,56,0.00,,,0.00,Wunderground v.1.15,2014-02-27 12:00:00,
2014-02-27 07:05:00,23.6,10.2,29.97,NNW,346,0.0,0.0,56,0.00,,,0.00,Wunderground v.1.15,2014-02-27 12:05:00,
2014-02-27 07:10:00,23.6,10.2,29.97,NNW,346,0.0,0.0,56,0.00,,,0.00,Wunderground v.1.15,2014-02-27 12:10:00,
2014-02-27 07:19:00,23.5,10.5,29.98,NNW,346,0.0,0.0,57,0.00,,,0.00,Wunderground v.1.15,2014-02-27 12:19:00,
2014-02-27 07:25:00,23.5,10.5,29.98,NNW,346,0.0,0.0,57,0.00,,,0.00,Wunderground v.1.15,2014-02-27 12:25:00,
2014-02-27 07:30:00,23.5,9.7,29.98,NNW,346,0.0,0.0,55,0.00,,,0.00,Wunderground v.1.15,2014-02-27 12:30:00,
2014-02-27 07:40:00,23.7,9.9,29.98,NNW,346,0.0,0.0,55,0.00,,,0.00,Wunderground v.1.15,2014-02-27 12:40:00,
2014-02-27 07:50:00,23.9,10.5,29.98,NNW,346,0.0,0.0,56,0.00,,,0.00,Wunderground v.1.15,2014-02-27 12:50:00,
2014-02-27 08:00:00,24.0,10.2,29.99,NNW,346,0.0,0.0,55,0.00,,,0.00,Wunderground v.1.15,2014-02-27 13:00:00,
2014-02-27 08:10:00,24.4,10.5,29.99,NNW,346,0.0,0.0,55,0.00,,,0.00,Wunderground v.1.15,2014-02-27 13:10:00,
2014-02-27 08:15:00,24.6,10.3,30.00,NNW,346,0.0,0.0,54,0.00,,,0.00,Wunderground v.1.15,2014-02-27 13:15:00,
2014-02-27 08:20:00,24.8,10.5,30.00,NNW,346,0.0,0.0,54,0.00,,,0.00,Wunderground v.1.15,2014-02-27 13:20:00,
2014-02-27 08:30:00,25.1,9.9,30.00,NNW,345,0.0,0.0,52,0.00,,,0.00,Wunderground v.1.15,2014-02-27 13:30:00,
2014-02-27 08:40:00,25.6,10.0,30.00,NNW,345,0.0,0.0,51,0.00,,,0.00,Wunderground v.1.15,2014-02-27 13:40:00,
2014-02-27 08:50:00,26.1,9.5,30.00,NE,47,0.0,0.0,49,0.00,,,0.00,Wunderground v.1.15,2014-02-27 13:50:00,
2014-02-27 09:00:00,26.6,10.9,30.00,NNE,12,0.0,0.0,51,0.00,,,0.00,Wunderground v.1.15,2014-02-27 14:00:00,
2014-02-27 09:10:00,27.2,10.1,30.00,NNW,333,0.0,1.0,48,0.00,,,0.00,Wunderground v.1.15,2014-02-27 14:10:00,
2014-02-27 09:15:00,27.5,9.9,30.00,North,355,0.0,1.0,47,0.00,,,0.00,Wunderground v.1.15,2014-02-27 14:15:00,
2014-02-27 09:25:00,28.1,9.5,30.00,NNW,340,0.0,0.0,45,0.00,,,0.00,Wunderground v.1.15,2014-02-27 14:25:00,
2014-02-27 09:30:00,28.5,9.3,30.00,NNW,338,0.0,0.0,44,0.00,,,0.00,Wunderground v.1.15,2014-02-27 14:30:00,
2014-02-27 09:40:00,29.1,8.8,30.00,NNW,344,0.0,0.0,42,0.00,,,0.00,Wunderground v.1.15,2014-02-27 14:40:00,
2014-02-27 09:50:00,29.7,8.3,30.00,North,360,0.0,0.0,40,0.00,,,0.00,Wunderground v.1.15,2014-02-27 14:50:00,
2014-02-27 10:00:00,30.5,8.4,29.99,North,360,0.0,0.0,39,0.00,,,0.00,Wunderground v.1.15,2014-02-27 15:00:00,
2014-02-27 10:10:00,31.9,9.7,29.99,North,350,0.0,0.0,39,0.00,,,0.00,Wunderground v.1.15,2014-02-27 15:10:00,
2014-02-27 10:20:00,33.7,8.9,29.99,SSW,198,0.0,0.0,35,0.00,,,0.00,Wunderground v.1.15,2014-02-27 15:20:00,
2014-02-27 10:30:00,34.4,8.9,29.99,North,360,0.0,0.0,34,0.00,,,0.00,Wunderground v.1.15,2014-02-27 15:30:00,
2014-02-27 10:40:00,36.0,6.8,29.99,NNE,14,0.0,0.0,29,0.00,,,0.00,Wunderground v.1.15,2014-02-27 15:40:00,
2014-02-27 10:50:00,37.0,10.5,29.98,SSE,163,0.0,0.0,33,0.00,,,0.00,Wunderground v.1.15,2014-02-27 15:50:00,
2014-02-27 11:00:00,38.0,10.7,29.99,North,5,0.0,0.0,32,0.00,,,0.00,Wunderground v.1.15,2014-02-27 16:00:00,
2014-02-27 11:10:00,38.8,10.0,29.99,NNW,333,0.0,0.0,30,0.00,,,0.00,Wunderground v.1.15,2014-02-27 16:10:00,
2014-02-27 11:15:00,39.4,9.7,29.99,NNW,340,0.0,0.0,29,0.00,,,0.00,Wunderground v.1.15,2014-02-27 16:15:00,
2014-02-27 11:20:00,39.8,10.1,29.99,NNW,338,0.0,0.0,29,0.00,,,0.00,Wunderground v.1.15,2014-02-27 16:20:00,
2014-02-27 11:30:00,40.3,8.9,29.99,North,5,0.0,1.0,27,0.00,,,0.00,Wunderground v.1.15,2014-02-27 16:30:00,
2014-02-27 11:35:00,40.4,9.0,29.99,NE,41,0.0,1.0,27,0.00,,,0.00,Wunderground v.1.15,2014-02-27 16:35:00,
2014-02-27 11:40:00,41.3,13.6,29.99,NE,41,0.0,0.0,32,0.00,,,0.00,Wunderground v.1.15,2014-02-27 16:40:00,
2014-02-27 11:50:00,43.8,13.6,29.98,NE,54,0.0,0.0,29,0.00,,,0.00,Wunderground v.1.15,2014-02-27 16:50:00,
2014-02-27 12:00:00,44.7,12.7,29.98,NE,55,0.0,0.0,27,0.00,,,0.00,Wunderground v.1.15,2014-02-27 17:00:00,
2014-02-27 12:10:00,44.8,11.1,29.98,ENE,62,0.0,0.0,25,0.00,,,0.00,Wunderground v.1.15,2014-02-27 17:10:00,
2014-02-27 12:20:00,45.8,11.9,29.97,NE,40,0.0,0.0,25,0.00,,,0.00,Wunderground v.1.15,2014-02-27 17:20:00,
2014-02-27 12:29:00,45.7,14.4,29.96,North,350,0.0,0.0,28,0.00,,,0.00,Wunderground v.1.15,2014-02-27 17:29:00,
2014-02-27 12:35:00,46.1,11.2,29.96,North,355,0.0,2.0,24,0.00,,,0.00,Wunderground v.1.15,2014-02-27 17:35:00,
2014-02-27 12:40:00,45.4,11.6,29.96,North,360,1.0,1.0,25,0.00,,,0.00,Wunderground v.1.15,2014-02-27 17:40:00,
2014-02-27 12:50:00,46.4,11.5,29.95,NNW,346,0.0,0.0,24,0.00,,,0.00,Wunderground v.1.15,2014-02-27 17:50:00,
2014-02-27 13:00:00,46.9,11.9,29.94,NE,47,0.0,0.0,24,0.00,,,0.00,Wunderground v.1.15,2014-02-27 18:00:00,
2014-02-27 13:09:00,47.7,11.6,29.94,NNW,348,0.0,0.0,23,0.00,,,0.00,Wunderground v.1.15,2014-02-27 18:09:00,
2014-02-27 13:19:00,48.2,13.0,29.93,North,355,0.0,0.0,24,0.00,,,0.00,Wunderground v.1.15,2014-02-27 18:19:00,
2014-02-27 13:25:00,47.8,11.7,29.93,NNW,338,0.0,0.0,23,0.00,,,0.00,Wunderground v.1.15,2014-02-27 18:25:00,
2014-02-27 13:30:00,47.7,13.5,29.93,NNW,339,0.0,0.0,25,0.00,,,0.00,Wunderground v.1.15,2014-02-27 18:30:00,
2014-02-27 13:40:00,48.3,13.1,29.93,NNW,336,0.0,2.0,24,0.00,,,0.00,Wunderground v.1.15,2014-02-27 18:40:00,
2014-02-27 13:50:00,48.2,12.1,29.93,North,355,1.0,1.0,23,0.00,,,0.00,Wunderground v.1.15,2014-02-27 18:50:00,
2014-02-27 14:00:00,48.7,11.5,29.92,NNW,327,0.0,0.0,22,0.00,,,0.00,Wunderground v.1.15,2014-02-27 19:00:00,
2014-02-27 14:10:00,49.0,10.7,29.92,North,5,0.0,0.0,21,0.00,,,0.00,Wunderground v.1.15,2014-02-27 19:10:00,
2014-02-27 14:20:00,48.7,10.4,29.92,North,360,1.0,1.0,21,0.00,,,0.00,Wunderground v.1.15,2014-02-27 19:20:00,
2014-02-27 14:25:00,49.5,13.2,29.92,West,275,1.0,1.0,23,0.00,,,0.00,Wunderground v.1.15,2014-02-27 19:25:00,
2014-02-27 14:30:00,49.7,11.3,29.92,North,360,0.0,6.0,21,0.00,,,0.00,Wunderground v.1.15,2014-02-27 19:30:00,
2014-02-27 14:40:00,50.0,13.6,29.92,WNW,290,0.0,0.0,23,0.00,,,0.00,Wunderground v.1.15,2014-02-27 19:40:00,
2014-02-27 14:50:00,49.1,12.8,29.92,North,355,1.0,1.0,23,0.00,,,0.00,Wunderground v.1.15,2014-02-27 19:50:00,
2014-02-27 15:00:00,49.6,15.2,29.92,NE,38,0.0,0.0,25,0.00,,,0.00,Wunderground v.1.15,2014-02-27 20:00:00,
2014-02-27 15:10:00,49.0,12.7,29.92,NNW,336,1.0,1.0,23,0.00,,,0.00,Wunderground v.1.15,2014-02-27 20:10:00,
2014-02-27 15:20:00,48.2,11.1,29.92,NNW,344,0.0,0.0,22,0.00,,,0.00,Wunderground v.1.15,2014-02-27 20:20:00,
2014-02-27 15:30:00,48.2,14.0,29.92,SW,221,0.0,0.0,25,0.00,,,0.00,Wunderground v.1.15,2014-02-27 20:30:00,
2014-02-27 15:40:00,48.3,14.1,29.92,East,82,0.0,0.0,25,0.00,,,0.00,Wunderground v.1.15,2014-02-27 20:40:00,
2014-02-27 15:50:00,48.2,14.0,29.92,East,85,0.0,0.0,25,0.00,,,0.00,Wunderground v.1.15,2014-02-27 20:50:00,
2014-02-27 16:00:00,47.8,13.6,29.93,SE,143,0.0,0.0,25,0.00,,,0.00,Wunderground v.1.15,2014-02-27 21:00:00,
2014-02-27 16:10:00,47.4,13.3,29.93,NNW,348,0.0,2.0,25,0.00,,,0.00,Wunderground v.1.15,2014-02-27 21:10:00,
2014-02-27 16:20:00,46.6,14.4,29.93,North,355,1.0,1.0,27,0.00,,,0.00,Wunderground v.1.15,2014-02-27 21:20:00,
2014-02-27 16:30:00,46.0,14.7,29.94,NNE,15,1.0,1.0,28,0.00,,,0.00,Wunderground v.1.15,2014-02-27 21:30:00,
2014-02-27 16:39:00,45.6,12.6,29.94,SE,128,1.0,1.0,26,0.00,,,0.00,Wunderground v.1.15,2014-02-27 21:39:00,
2014-02-27 16:50:00,45.7,13.6,29.93,North,350,0.0,1.0,27,0.00,,,0.00,Wunderground v.1.15,2014-02-27 21:50:00,
2014-02-27 16:55:00,45.6,12.6,29.93,NNW,342,0.0,1.0,26,0.00,,,0.00,Wunderground v.1.15,2014-02-27 21:55:00,
2014-02-27 17:00:00,45.5,13.4,29.94,NNW,338,0.0,0.0,27,0.00,,,0.00,Wunderground v.1.15,2014-02-27 22:00:00,
2014-02-27 17:05:00,45.5,14.2,29.94,ESE,123,0.0,0.0,28,0.00,,,0.00,Wunderground v.1.15,2014-02-27 22:05:00,
2014-02-27 17:10:00,45.2,14.8,29.94,NNE,14,0.0,0.0,29,0.00,,,0.00,Wunderground v.1.15,2014-02-27 22:10:00,
2014-02-27 17:20:00,44.8,14.4,29.94,North,11,0.0,0.0,29,0.00,,,0.00,Wunderground v.1.15,2014-02-27 22:20:00,
2014-02-27 17:30:00,44.2,13.9,29.95,NW,305,1.0,2.0,29,0.00,,,0.00,Wunderground v.1.15,2014-02-27 22:30:00,
2014-02-27 17:40:00,43.9,13.6,29.95,NNE,13,0.0,0.0,29,0.00,,,0.00,Wunderground v.1.15,2014-02-27 22:40:00,
2014-02-27 17:50:00,43.5,14.1,29.96,NNW,344,0.0,0.0,30,0.00,,,0.00,Wunderground v.1.15,2014-02-27 22:50:00,
2014-02-27 18:00:00,43.1,13.7,29.97,NNW,344,0.0,0.0,30,0.00,,,0.00,Wunderground v.1.15,2014-02-27 23:00:00,
2014-02-27 18:10:00,42.8,14.2,29.97,NNW,339,0.0,0.0,31,0.00,,,0.00,Wunderground v.1.15,2014-02-27 23:10:00,
2014-02-27 18:15:00,42.5,12.4,29.97,NNW,331,0.0,0.0,29,0.00,,,0.00,Wunderground v.1.15,2014-02-27 23:15:00,
2014-02-27 18:25:00,42.1,14.3,29.97,NNW,333,0.0,0.0,32,0.00,,,0.00,Wunderground v.1.15,2014-02-27 23:25:00,
2014-02-27 18:30:00,41.8,14.1,29.97,NNW,333,0.0,0.0,32,0.00,,,0.00,Wunderground v.1.15,2014-02-27 23:30:00,
2014-02-27 18:35:00,41.5,13.1,29.97,NNW,333,0.0,0.0,31,0.00,,,0.00,Wunderground v.1.15,2014-02-27 23:35:00,
2014-02-27 18:40:00,41.2,13.5,29.97,NNW,333,0.0,0.0,32,0.00,,,0.00,Wunderground v.1.15,2014-02-27 23:40:00,
2014-02-27 18:50:00,40.7,13.8,29.98,NNW,333,0.0,0.0,33,0.00,,,0.00,Wunderground v.1.15,2014-02-27 23:50:00,
2014-02-27 19:00:00,40.3,14.1,29.98,NNW,333,0.0,0.0,34,0.00,,,0.00,Wunderground v.1.15,2014-02-28 00:00:00,
2014-02-27 19:10:00,39.8,14.3,29.98,NNW,333,0.0,0.0,35,0.00,,,0.00,Wunderground v.1.15,2014-02-28 00:10:00,
2014-02-27 19:20:00,39.3,13.9,29.99,NNW,333,0.0,0.0,35,0.00,,,0.00,Wunderground v.1.15,2014-02-28 00:20:00,
2014-02-27 19:30:00,38.8,13.4,30.00,NNW,333,0.0,0.0,35,0.00,,,0.00,Wunderground v.1.15,2014-02-28 00:30:00,
2014-02-27 19:39:00,38.4,15.0,30.00,NNW,333,0.0,0.0,38,0.00,,,0.00,Wunderground v.1.15,2014-02-28 00:39:00,
2014-02-27 19:45:00,38.2,13.6,30.00,NNW,333,0.0,0.0,36,0.00,,,0.00,Wunderground v.1.15,2014-02-28 00:45:00,
2014-02-27 19:50:00,37.9,13.3,30.00,NNW,333,0.0,0.0,36,0.00,,,0.00,Wunderground v.1.15,2014-02-28 00:50:00,
2014-02-27 20:00:00,37.6,16.0,30.00,NNW,333,0.0,0.0,41,0.00,,,0.00,Wunderground v.1.15,2014-02-28 01:00:00,
2014-02-27 20:10:00,36.6,18.2,30.00,NNW,333,0.0,0.0,47,0.00,,,0.00,Wunderground v.1.15,2014-02-28 01:10:00,
2014-02-27 20:19:00,35.6,15.8,30.00,NNW,333,0.0,0.0,44,0.00,,,0.00,Wunderground v.1.15,2014-02-28 01:19:00,
2014-02-27 20:29:00,35.0,17.7,30.00,NNW,333,0.0,0.0,49,0.00,,,0.00,Wunderground v.1.15,2014-02-28 01:29:00,
2014-02-27 20:35:00,34.6,16.9,30.00,NNW,333,0.0,0.0,48,0.00,,,0.00,Wunderground v.1.15,2014-02-28 01:35:00,
2014-02-27 20:45:00,33.6,16.9,30.00,NNW,333,0.0,0.0,50,0.00,,,0.00,Wunderground v.1.15,2014-02-28 01:45:00,
2014-02-27 20:50:00,33.3,15.2,30.00,NNW,333,0.0,0.0,47,0.00,,,0.00,Wunderground v.1.15,2014-02-28 01:50:00,
2014-02-27 21:00:00,33.0,15.4,30.01,NNW,333,0.0,0.0,48,0.00,,,0.00,Wunderground v.1.15,2014-02-28 02:00:00,
2014-02-27 21:10:00,32.6,17.3,30.01,NNW,333,0.0,0.0,53,0.00,,,0.00,Wunderground v.1.15,2014-02-28 02:10:00,
2014-02-27 21:20:00,31.7,19.4,30.01,NNW,333,0.0,0.0,60,0.00,,,0.00,Wunderground v.1.15,2014-02-28 02:20:00,
2014-02-27 21:29:00,31.3,19.8,30.01,NNW,333,0.0,0.0,62,0.00,,,0.00,Wunderground v.1.15,2014-02-28 02:29:00,
2014-02-27 21:35:00,31.2,20.1,30.01,NNW,333,0.0,0.0,63,0.00,,,0.00,Wunderground v.1.15,2014-02-28 02:35:00,
2014-02-27 21:40:00,31.1,20.7,30.01,NNW,333,0.0,0.0,65,0.00,,,0.00,Wunderground v.1.15,2014-02-28 02:40:00,
2014-02-27 21:50:00,30.5,19.4,30.01,NNW,333,0.0,0.0,63,0.00,,,0.00,Wunderground v.1.15,2014-02-28 02:50:00,
2014-02-27 22:00:00,29.9,18.8,30.02,NNW,333,0.0,0.0,63,0.00,,,0.00,Wunderground v.1.15,2014-02-28 03:00:00,
2014-02-27 22:10:00,29.7,19.7,30.02,NNW,333,0.0,0.0,66,0.00,,,0.00,Wunderground v.1.15,2014-02-28 03:10:00,
2014-02-27 22:20:00,29.2,21.0,30.01,NNW,333,0.0,0.0,71,0.00,,,0.00,Wunderground v.1.15,2014-02-28 03:20:00,
2014-02-27 22:29:00,29.0,20.1,30.02,NNW,333,0.0,0.0,69,0.00,,,0.00,Wunderground v.1.15,2014-02-28 03:29:00,
2014-02-27 22:35:00,28.9,19.7,30.02,NNW,333,0.0,0.0,68,0.00,,,0.00,Wunderground v.1.15,2014-02-28 03:35:00,
2014-02-27 22:40:00,28.9,20.0,30.02,NNW,333,0.0,0.0,69,0.00,,,0.00,Wunderground v.1.15,2014-02-28 03:40:00,
2014-02-27 22:50:00,28.7,20.5,30.02,NNW,333,0.0,0.0,71,0.00,,,0.00,Wunderground v.1.15,2014-02-28 03:50:00,
2014-02-27 23:00:00,28.6,20.1,30.02,NNW,333,0.0,0.0,70,0.00,,,0.00,Wunderground v.1.15,2014-02-28 04:00:00,
2014-02-27 23:10:00,28.4,19.5,30.02,NNW,333,0.0,0.0,69,0.00,,,0.00,Wunderground v.1.15,2014-02-28 04:10:00,
2014-02-27 23:20:00,27.6,19.8,30.01,NNW,333,0.0,0.0,72,0.00,,,0.00,Wunderground v.1.15,2014-02-28 04:20:00,
2014-02-27 23:30:00,27.5,19.0,30.01,NNW,333,0.0,0.0,70,0.00,,,0.00,Wunderground v.1.15,2014-02-28 04:30:00,
2014-02-27 23:39:00,27.5,20.0,30.01,NNW,333,0.0,0.0,73,0.00,,,0.00,Wunderground v.1.15,2014-02-28 04:39:00,
2014-02-27 23:45:00,27.5,20.3,30.01,NNW,333,0.0,0.0,74,0.00,,,0.00,Wunderground v.1.15,2014-02-28 04:45:00,
2014-02-27 23:50:00,27.4,19.6,30.01,NNW,333,0.0,0.0,72,0.00,,,0.00,Wunderground v.1.15,2014-02-28 04:50:00,